www.pogodaiklimat.ru

Погода и климат >> Архив погоды >> Италия >> Вьесте


ПОГОДА во Вьесте

  • Прогноз погоды во Вьесте
  • Монитор погоды во Вьесте

АРХИВ ПОГОДЫ во Вьесте

Время (UTC), дата Ветер
(напр.,м/с)
 
Видим.   Явления Облачность Т
(С)
Тd
(С)
f
(%)
Тe
(С)
Тes
(С)
Комфортность P
(гПа)
Po
(гПа)
Тmin
(С)
Tmax
(С)
R
(мм)
R24
(мм)
S
(см)
01 20.03 С 3 н/о н/о +11.0 +8.0 82 +9 +9 1022.2 1021.7
02 20.03 СЗ 2 н/о н/о +11.1 +8.3 83 +10 +10 1022.0 1021.5
03 20.03 С 3 н/о н/о +11.0 +8.4 84 +9 +9 1021.8 1021.3
04 20.03 С 2 н/о н/о +11.2 +8.9 86 +10 +10 1021.8 1021.3
05 20.03 СЗ 1 н/о н/о +11.3 +9.0 86 +11 +11 1022.2 1021.7
06 20.03 СЗ 2 н/о н/о +11.3 +9.0 86 +10 +10 1022.9 1022.4 +10.7 303
07 20.03 З 1 н/о н/о +11.9 +9.6 86 +12 +12 1023.3 1022.8
08 20.03 С 3 н/о н/о +12.5 +9.8 84 +11 +11 1023.9 1023.4
09 20.03 С 2 н/о н/о +12.8 +9.4 80 +12 +12 1024.2 1023.7
10 20.03 С 5 н/о н/о +13.4 +9.2 76 +12 +12 1024.1 1023.6
11 20.03 С 4 н/о н/о +13.0 +9.6 80 +11 +11 1024.6 1024.1
12 20.03 С 6 н/о н/о +12.6 +9.8 83 +10 +10 1024.5 1024.0
13 20.03 З 3 н/о н/о +12.4 +9.6 83 +11 +11 1025.2 1024.7
14 20.03 СЗ 6 н/о н/о +12.1 +7.2 72 +10 +10 1024.3 1023.8
15 20.03 С 4 н/о н/о +12.0 +7.3 73 +10 +10 1024.5 1024.0
16 20.03 СЗ 4 н/о н/о +12.0 +6.8 70 +10 +10 1024.9 1024.4
17 20.03 С 4 н/о н/о +11.8 +6.2 69 +10 +10 1025.0 1024.5
18 20.03 С 5 н/о н/о +12.0 +5.6 65 +10 +10 1025.5 1025.0 +13.5 0.2
19 20.03 С 5 н/о н/о +11.8 +5.6 66 +10 +10 1026.1 1025.6
20 20.03 С 3 н/о н/о +11.6 +5.2 65 +10 +10 1026.4 1025.9
21 20.03 С 3 н/о н/о +11.4 +5.0 65 +10 +10 1026.6 1026.1
22 20.03 СЗ 3 н/о н/о +11.0 +4.8 66 +9 +9 1026.7 1026.2
23 20.03 СЗ 4 н/о н/о +10.8 +4.9 67 +9 +9 1026.4 1025.9
00 21.03 С 3 н/о н/о +10.6 +5.1 69 +9 +9 1026.4 1025.9
01 21.03 С 3 н/о н/о +10.5 +5.6 72 +9 +9 1026.8 1026.3
02 21.03 С 4 н/о н/о +10.6 +5.9 73 +8 +8 1026.2 1025.7
03 21.03 С 3 н/о н/о +10.7 +6.4 75 +9 +9 1026.2 1025.7
04 21.03 СЗ 3 н/о н/о +10.7 +7.0 78 +9 +9 1026.5 1026.0
05 21.03 СЗ 3 н/о н/о +10.8 +7.3 79 +9 +9 1026.6 1026.1
06 21.03 СЗ 4 н/о н/о +11.1 +7.7 80 +9 +9 1027.1 1026.6 +10.4 407
07 21.03 С 5 н/о н/о +12.3 +8.3 77 +10 +10 1027.3 1026.8
08 21.03 СЗ 5 н/о н/о +13.5 +8.7 73 +12 +12 1027.9 1027.4
09 21.03 С 5 н/о н/о +14.7 +8.8 68 +13 +13 1028.2 1027.7
10 21.03 С 5 н/о н/о +15.1 +9.0 67 +14 +14 1028.7 1028.2
11 21.03 0 н/о н/о +14.8 +8.7 67 1028.5 1028.0
12 21.03 С 7 н/о н/о +15.0 +8.4 65 +13 +13 1028.1 1027.6
13 21.03 0 н/о н/о +15.2 +7.9 62 1027.6 1027.1
14 21.03 СЗ 7 н/о н/о +15.0 +8.4 65 +13 +13 1027.2 1026.7
15 21.03 С 6 н/о н/о +14.3 +8.2 67 +12 +12 1027.1 1026.6
17 21.03 СВ 5 н/о н/о +12.7 +7.1 69 +11 +11 1026.7 1026.2
18 21.03 СЗ 3 н/о н/о +12.1 +7.2 72 +11 +11 1027.3 1026.8 +15.7
19 21.03 СЗ 4 н/о н/о +11.8 +7.7 76 +10 +10 1027.8 1027.3
20 21.03 СЗ 4 н/о н/о +11.6 +7.7 77 +10 +10 1027.7 1027.2
21 21.03 СЗ 4 н/о н/о +11.7 +7.0 73 +10 +10 1027.7 1027.2
22 21.03 С 5 н/о н/о +12.2 +6.0 66 +10 +10 1027.8 1027.3
23 21.03 СЗ 4 н/о н/о +12.2 +6.2 67 +10 +10 1027.7 1027.2
00 22.03 СЗ 4 н/о н/о +12.1 +7.4 73 +10 +10 1027.7 1027.2
01 22.03 СЗ 5 н/о н/о +11.8 +7.9 77 +9 +9 1027.6 1027.1
02 22.03 С 4 н/о н/о +11.4 +8.0 80 +9 +9 1027.3 1026.8
03 22.03 С 4 н/о н/о +11.1 +7.9 81 +9 +9 1027.4 1026.9
04 22.03 СЗ 3 н/о н/о +10.9 +7.5 80 +9 +9 1027.5 1027.0
05 22.03 СЗ 4 н/о н/о +10.9 +7.5 80 +9 +9 1027.8 1027.3
06 22.03 СЗ 4 н/о н/о +11.4 +8.0 80 +9 +9 1028.1 1027.6 +10.8 306
07 22.03 С 4 н/о н/о +12.9 +8.7 76 +11 +11 1028.1 1027.6
08 22.03 С 3 н/о н/о +14.5 +9.7 73 +14 +14 1028.1 1027.6
09 22.03 С 5 н/о н/о +15.2 +9.1 67 +14 +14 1028.1 1027.6
10 22.03 С 5 н/о н/о +16.1 +9.5 65 +15 +15 1027.9 1027.4
11 22.03 С 4 н/о н/о +16.9 +10.5 66 +17 +17 1027.8 1027.3
12 22.03 С 5 н/о н/о +16.6 +9.7 64 +16 +16 1027.5 1027.0
13 22.03 С 5 н/о н/о +16.2 +10.5 69 +15 +15 1026.7 1026.2
14 22.03 С 5 н/о н/о +16.3 +9.7 65 +15 +15 1026.3 1025.8
15 22.03 СЗ 5 н/о н/о +15.9 +9.5 66 +15 +15 1025.9 1025.4
16 22.03 С 4 н/о н/о +15.1 +9.8 71 +14 +14 1025.5 1025.0
17 22.03 С 3 н/о н/о +13.8 +9.0 73 +13 +13 1025.5 1025.0
18 22.03 С 4 н/о н/о +12.5 +7.9 74 +11 +11 1025.2 1024.7 +17.1
19 22.03 СЗ 4 н/о н/о +12.2 +7.0 71 +10 +10 1025.2 1024.7
20 22.03 СЗ 4 н/о н/о +12.3 +5.8 64 +10 +10 1025.2 1024.7
21 22.03 С 4 н/о н/о +12.4 +4.0 57 +11 +11 1025.0 1024.5
22 22.03 СЗ 4 н/о н/о +12.5 +4.1 57 +11 +11 1024.6 1024.1
23 22.03 С 4 н/о н/о +12.6 +3.4 53 +11 +11 1024.1 1023.6
00 23.03 С 4 н/о н/о +13.0 +3.0 51 +12 +12 1023.7 1023.2
01 23.03 З 4 н/о н/о +12.7 +3.5 53 +11 +11 1023.7 1023.2
02 23.03 З 4 н/о н/о +12.5 +4.1 57 +11 +11 1023.2 1022.7
03 23.03 З 3 н/о н/о +12.2 +4.1 58 +11 +11 1023.2 1022.7
04 23.03 СЗ 3 н/о н/о +12.1 +4.5 60 +11 +11 1022.9 1022.4
05 23.03 СЗ 4 н/о н/о +11.9 +5.0 63 +10 +10 1023.1 1022.6
06 23.03 С 4 н/о н/о +12.4 +6.4 67 +11 +11 1023.3 1022.8 +11.9 307
07 23.03 СЗ 4 н/о н/о +13.7 +7.8 68 +12 +12 1023.5 1023.0
08 23.03 С 4 н/о н/о +15.2 +8.6 65 +14 +14 1023.4 1022.9
09 23.03 С 5 н/о н/о +16.2 +9.1 63 +15 +15 1023.4 1022.9
10 23.03 С 5 н/о н/о +16.6 +9.7 64 +16 +16 1023.4 1022.9
11 23.03 С 6 н/о н/о +16.5 +9.6 64 +15 +15 1023.2 1022.7
12 23.03 0 н/о н/о +16.3 +10.3 68 1023.1 1022.6
13 23.03 СВ 7 н/о н/о +16.4 +10.9 70 +15 +15 1022.4 1021.9
14 23.03 С 6 н/о н/о +16.9 +10.5 66 +16 +16 1021.7 1021.2
15 23.03 С 5 н/о н/о +16.2 +10.7 70 +15 +15 1021.7 1021.2
16 23.03 СЗ 3 н/о н/о +16.7 +7.0 53 +17 +17 1021.6 1021.1
17 23.03 С 3 н/о н/о +15.5 +6.4 55 +15 +15 1021.4 1020.9
18 23.03 СЗ 3 н/о н/о +14.9 +3.9 48 +14 +14 1021.6 1021.1 +17.8
19 23.03 СЗ 3 н/о н/о +13.9 +3.0 48 +13 +13 1022.0 1021.5
20 23.03 СЗ 4 н/о н/о +14.0 +2.2 45 +13 +13 1022.1 1021.6
21 23.03 С 4 н/о н/о +14.5 +1.6 42 +14 +14 1022.1 1021.6
22 23.03 З 4 н/о н/о +14.7 +1.1 40 +14 +14 1021.9 1021.4
23 23.03 СЗ 4 н/о н/о +14.9 +1.0 39 +14 +14 1021.6 1021.1
00 24.03 СЗ 4 н/о н/о +15.1 +0.4 37 +14 +14 1021.8 1021.3
01 24.03 СЗ 4 н/о н/о +15.3 -0.2 35 +14 +14 1021.5 1021.0
02 24.03 СЗ 4 н/о н/о +15.2 +0.9 38 +14 +14 1021.0 1020.5
03 24.03 С 4 н/о н/о +14.4 +2.2 44 +13 +13 1020.7 1020.2
04 24.03 С 4 н/о н/о +13.9 +2.7 47 +13 +13 1021.0 1020.5
05 24.03 СЗ 4 н/о н/о +13.7 +3.1 49 +12 +12 1021.3 1020.8
06 24.03 С 4 н/о н/о +13.8 +3.2 49 +13 +13 1021.4 1020.9 +13.4 406
07 24.03 С 3 н/о н/о +15.7 +5.2 50 +15 +15 1021.4 1020.9
08 24.03 Ю 2 н/о н/о +17.6 +9.9 61 +18 +18 1021.7 1021.2
09 24.03 Ю 3 н/о н/о +16.6 +8.7 60 +17 +17 1022.0 1021.5
10 24.03 ЮВ 2 н/о н/о +17.3 +9.6 61 +18 +18 1022.2 1021.7
11 24.03 Ю 2 н/о н/о +17.7 +9.3 58 +18 +18 1021.8 1021.3
12 24.03 ЮЗ 2 н/о н/о +18.8 +10.3 58 +20 +20 1021.4 1020.9
13 24.03 С 2 н/о н/о +18.0 +9.8 59 +19 +19 1020.7 1020.2
14 24.03 В 3 н/о н/о +18.1 +10.4 61 +18 +18 1020.0 1019.5
15 24.03 С 5 н/о н/о +15.8 +11.1 74 +15 +15 1019.5 1019.0
16 24.03 СВ 3 н/о н/о +15.6 +10.9 74 +15 +15 1019.2 1018.7
17 24.03 С 2 н/о н/о +15.0 +8.9 67 +15 +15 1018.8 1018.3
18 24.03 штиль 0 н/о н/о +12.9 +7.5 70 +13 +13 1018.8 1018.3 +19.5
19 24.03 штиль 0 н/о н/о +11.9 +7.6 75 +11 +11 1019.1 1018.6
20 24.03 З 1 н/о н/о +11.4 +7.5 77 +12 +12 1019.0 1018.5
21 24.03 штиль 0 н/о н/о +10.4 +6.3 76 +10 +10 1018.6 1018.1
22 24.03 штиль 0 н/о н/о +10.0 +5.7 75 +9 +9 1018.1 1017.6
23 24.03 штиль 0 н/о н/о +9.7 +5.6 76 +9 +9 1017.7 1017.2
00 25.03 З 1 н/о н/о +9.4 +4.9 73 +10 +10 1017.3 1016.8
01 25.03 З 1 н/о н/о +9.1 +4.7 74 +10 +10 1016.6 1016.1
02 25.03 С 1 н/о н/о +9.4 +5.5 77 +10 +10 1016.1 1015.6
03 25.03 З 1 н/о н/о +9.1 +5.8 80 +9 +9 1015.7 1015.2
04 25.03 З 1 н/о н/о +8.7 +5.2 79 +9 +9 1015.5 1015.0
05 25.03 З 1 н/о н/о +9.6 +8.2 91 +10 +10 1015.3 1014.8
06 25.03 штиль 0 н/о н/о +9.5 +7.9 90 +9 +9 1015.2 1014.7 +8.5 0
07 25.03 ЮЗ 1 н/о н/о +14.0 +12.7 92 +14 +14 1014.9 1014.4
08 25.03 ЮВ 1 н/о н/о +16.2 +11.5 74 +17 +17 1014.6 1014.1
09 25.03 Ю 1 н/о н/о +18.5 +9.2 55 +20 +20 1014.3 1013.8
10 25.03 В 2 н/о н/о +17.9 +10.0 60 +19 +19 1014.2 1013.7
11 25.03 В 1 н/о н/о +16.7 +12.2 75 +18 +18 1013.6 1013.1
12 25.03 В 2 н/о н/о +16.9 +11.8 72 +17 +17 1013.1 1012.6
13 25.03 В 2 н/о н/о +16.9 +10.5 66 +17 +17 1012.1 1011.6
14 25.03 ЮВ 3 н/о н/о +16.9 +12.4 75 +17 +17 1011.3 1010.8
15 25.03 Ю 1 н/о н/о +16.9 +11.1 69 +18 +18 1010.4 1009.9
16 25.03 ЮЗ 3 н/о н/о +16.1 +11.4 74 +16 +16 1009.8 1009.3
17 25.03 ЮЗ 4 н/о н/о +15.2 +9.9 71 +14 +14 1009.0 1008.5
18 25.03 ЮЗ 4 н/о н/о +15.3 +8.9 66 +14 +14 1008.5 1008.0 +19.1
19 25.03 Ю 2 н/о н/о +14.9 +8.5 66 +15 +15 1008.4 1007.9
20 25.03 З 1 н/о н/о +14.0 +6.5 61 +14 +14 1008.4 1007.9
21 25.03 штиль 0 н/о н/о +12.0 +5.3 64 +12 +12 1008.0 1007.5
22 25.03 штиль 0 н/о н/о +11.4 +5.9 69 +11 +11 1007.7 1007.2
23 25.03 СВ 2 н/о н/о +11.3 +6.6 73 +11 +11 1007.6 1007.1
00 26.03 С 1 н/о н/о +10.5 +5.6 72 +10 +10 1007.4 1006.9
01 26.03 СЗ 1 н/о н/о +12.2 +8.0 75 +12 +12 1007.4 1006.9
02 26.03 С 3 н/о н/о +13.3 +8.5 73 +12 +12 1007.7 1007.2
03 26.03 С 2 н/о н/о +14.2 +12.6 90 +14 +14 1007.9 1007.4
04 26.03 С 1 н/о н/о +13.4 +11.4 88 +14 +14 1008.3 1007.8
05 26.03 С 1 н/о н/о +12.9 +11.1 89 +13 +13 1009.1 1008.6
06 26.03 СЗ 2 н/о н/о +13.5 +12.0 91 +13 +13 1009.6 1009.1 +10.4 404
07 26.03 ЮВ 3 н/о н/о +13.7 +9.9 78 +13 +13 1010.3 1009.8
08 26.03 В 4 н/о н/о +13.9 +9.9 77 +12 +12 1011.2 1010.7
09 26.03 СВ 9 н/о н/о +13.2 +8.0 71 +10 +10 1012.2 1011.7
10 26.03 В 7 н/о н/о +13.3 +7.5 68 +11 +11 1013.0 1012.5
11 26.03 С 5 н/о н/о +12.2 +7.2 71 +10 +10 1014.2 1013.7
12 26.03 С 8 н/о н/о +11.6 +8.8 83 +8 +8 1015.1 1014.6
13 26.03 СВ 11 н/о н/о +11.3 +8.3 82 +7 +7 1015.6 1015.1
14 26.03 СВ 9 н/о н/о +11.3 +7.9 80 +8 +8 1016.1 1015.6
15 26.03 СВ 7 н/о н/о +11.8 +7.7 76 +9 +9 1016.1 1015.6
16 26.03 СВ 6 н/о н/о +12.1 +7.4 73 +9 +9 1016.2 1015.7
17 26.03 С 3 н/о н/о +11.8 +7.9 77 +10 +10 1016.7 1016.2
18 26.03 СВ 7 н/о н/о +12.1 +9.1 82 +9 +9 1016.6 1016.1 +14.0
21 26.03 С 2 н/о н/о +11.3 +8.3 82 +10 +10 1018.4 1017.9
22 26.03 С 4 н/о н/о +11.8 +9.7 87 +10 +10 1018.9 1018.4
23 26.03 С 1 н/о н/о +11.0 +8.7 86 +11 +11 1019.3 1018.8

 

Местоположение метеостанции Вьесте (Италия): широта 41.88 долгота 16.17 высота над уровнем моря 3 м.

В архиве по умолчанию представлена погода во Вьесте за последнюю неделю. Архивные данные за месяц целиком и за предыдущие месяцы, начиная с января 2011 года, Вы можете получить, выбрав интересующий диапазон дат из раскрывающегося списка и нажав кнопку "Ввод!".


*Определитесь, кто Вы:
робот инопланетянин человек

Внимание! Время в таблицах - всемирное. Для получения местного времени необходимо прибавить поправку, которая равна 1 ч.

Смотрите также архив погоды в соседних городах и на ближайших метеорологических станциях:

Погода в Монте-Сант-Анджело (Италия) (27 км)
Погода в Амендоле (Италия) (54 км)
Погода на Палагруже (Хорватия) (58 км)
Погода в Бари аэропорту (Италия) (98 км)
Погода в Термоли (Италия) (98 км)
Погода в Бари (Италия) (103 км)
Погода в Ластово (Хорватия) (116 км)
Погода в Тревико (Италия) (121 км)
Погода в Комице (Хорватия) (130 км)
Погода в Кампобассо (Италия) (131 км)

Пояснения к столбцам:

Ветер - указаны скорость ветра в м/с - средняя за 10 мин, порывы в срок и между сроками (в фигурных скобках) и направление, откуда дует ветер: С - северный, СВ - северо-восточный, В - восточный, ЮВ - юго-восточный, Ю - южный, ЮЗ - юго-западный, З - западный, СЗ - северо-западный.
Видимость - горизонтальная дальность видимости в метрах или километрах. При видимости от 1 до 10 км при отсутствии осадков обычно наблюдается дымка, при ухудшении видимости до 1 км и менее - туман. В сухую погоду видимость может ухудшаться дымом, пылью или мглою.
Явления - указаны атмосферные явления, наблюдавшиеся в срок или в последний час перед сроком; фигурными скобками обозначены явления, наблюдавшиеся между сроками (за 1-3 часа до срока); квадратными скобками обозначены град или гололедные отложения с указанием их диаметра в мм.
Облачность - указаны через наклонную черту общая и нижняя облачность в баллах и высота нижней границы облаков в метрах; квадратными скобками обозначены формы облаков: Ci - перистые, Cs - перисто-слоистые, Cc - перисто-кучевые, Ac - высококучевые, As - высокослоистые, Sc - слоисто-кучевые, Ns - слоисто-дождевые, Cu - кучевые, Cb - кучево-дождевые. Подробнее классификацию облаков см. в Атласе облаков (PDF).
T - Температура воздуха - температура, измеренная на высоте 2 м над землей.
Td - Температура точки росы - температура, при понижении до которой содержащийся в воздухе водяной пар достигнет насыщения.
f - Относительная влажность воздуха - влажноcть воздуха, измеренная на высоте 2 м над землей.
Te - Эффективная температура - температура, которую ощущает одетый по сезону человек в тени. Характеристика душности погоды. При расчете учитывается влияние влажности воздуха и скорости ветра на теплоощущения человека.
Tes - Эффективная температура на солнце - температура, которую ощущает человек, с поправкой на солнечный нагрев. Характеристика знойности погоды. Зависит от высоты солнца над горизонтом, облачности и скорости ветра. Ночью, в пасмурную погоду, а также при ветре 12 м/с и более поправка равна нулю.
P - Атмосферное давление - приведенное к уровню моря атмосферное давление.
Po - Атмосферное давление - измеренное на уровне метеостанции атмосферное давление.
Tmin - Минимальная температура - минимум температуры воздуха на высоте 2 м над землей.
Tmax - Максимальная температура - максимум температуры воздуха на высоте 2 м над землей.
R - Количество осадков - Количество выпавших осадков за период времени, мм. При наведении курсора мыши на число - период времени, за который выпало указанное количество осадков.
R24 - Количество осадков - Количество выпавших осадков за 24 часа, мм.
S - Снежный покров - Высота снежного покрова, см. При наведении курсора мыши на число - состояние снежного покрова и степень покрытия местности в баллах.